Regional Weather Roundup
Issued by NWS

Home | Current Version | Previous Version | Graphics & Text | Print | Product List | Glossary On
Versions: 1 2 3 4 5 6 7 8 9 10 11 12 13 14 15 16 17 18 19 20 21 22 23 24 25 26 27 28 29 30 31 32 33 34 35 36 37 38 39 40 41 42 43 44 45 46 47 48 49 50
454
ASUS44 KMEG 292100
RWRTN
TENNESSEE HOURLY STATE WEATHER ROUNDUP
NATIONAL WEATHER SERVICE MEMPHIS TN
400 PM CDT WED MAR 29 2017

TNZ002-004-019-021-049-052-054-088>092-292200-
WEST TENNESSEE

CITY           SKY/WX    TMP DP  RH WIND       PRES   REMARKS
MEMPHIS INTL   CLOUDY    82  56  40 S16       29.81F
NWS MEMPHIS      N/A     82 N/A N/A MISG        N/A
JACKSON        SUNNY     83  56  39 S9        29.85F
DYERSBURG      MOSUNNY   81  56  42 S15G21    29.82F
PARIS          SUNNY     77  61  57 SE10      29.88F
$$

TNZ008-025-027-028-033-062-065-066-292200-
NORTH MIDDLE TENNESSEE

CITY           SKY/WX    TMP DP  RH WIND       PRES   REMARKS
NASHVILLE      MOSUNNY   81  56  42 S7        29.95F
CLARKSVILLE    SUNNY     76  56  49 E12       29.92F
SMYRNA         MOSUNNY   81  61  50 SE8       29.96F
CROSSVILLE     MOSUNNY   76  49  38 NW7       30.04F
$$

TNZ061-075-076-078-094-096-097-292200-
SOUTH MIDDLE TENNESSEE

CITY           SKY/WX    TMP DP  RH WIND       PRES   REMARKS
TULLAHOMA      SUNNY     79  55  44 S8        29.98F
WINCHESTER     SUNNY     81  61  50 S3        29.98F
MCMINNVILLE    SUNNY     81  59  47 VRB3      29.98F
COLUMBIA       MOSUNNY   81  63  54 SE10      29.91F
SHELBYVILLE    SUNNY     82  63  51 S7        29.97F
$$

TNZ017-018-042-046-047-292200-
NORTHEAST TENNESSEE

CITY           SKY/WX    TMP DP  RH WIND       PRES   REMARKS
TRI CITIES     MOSUNNY   76  50  40 W6        30.03F
$$

TNZ012-013-036-069-073-074-292200-
CENTRAL EAST TENNESSEE

CITY           SKY/WX    TMP DP  RH WIND       PRES   REMARKS
KNOXVILLE      MOSUNNY   76  48  37 CALM      30.00F
OAK RIDGE      SUNNY     80  46  30 VRB6      30.00F
GATLINBURG     SUNNY     77  45  31 W12       30.01F
$$

TNZ083-085-099-292200-
SOUTHEAST TENNESSEE

CITY           SKY/WX    TMP DP  RH WIND       PRES   REMARKS
CHATTANOOGA    MOSUNNY   80  54  40 VRB3      29.98F
$$

SKY/WX REPORTED AS FAIR MEANS FEW OR NO CLOUDS BELOW
12 THOUSAND FEET.





USA.gov is the U.S. government's official web portal to all federal, state and local government web resources and services.